Regional Weather Roundup
Issued by NWS

Home | Current Version | Previous Version | Text Only | Print | Product List | Glossary On
Versions: 1 2 3 4 5 6 7 8 9 10 11 12 13 14 15 16 17 18 19 20 21 22 23 24 25 26 27 28 29 30 31 32 33 34 35 36 37 38 39 40 41 42 43 44 45 46 47 48 49 50
000
ASUS45 KABQ 251501
RWRNM
NEW MEXICO REGIONAL WEATHER ROUNDUP
NATIONAL WEATHER SERVICE ALBUQUERQUE NM
900 AM MDT WED MAY 25 2016

NOTE: "FAIR" MEANS FEW OR NO CLOUDS BELOW 12,000 FEET AGL WITH NO
       SIGNIFICANT WEATHER OR OBSTRUCTIONS TO VISION.

      THIS PRODUCT IS RELEASED AS TWO VERSIONS.  ONE VERSION NEAR
      THE TOP OF THE HOUR CONTAINING PRELIMINARY DATA FROM ALBUQUERQUE
      AND OTHER STATIONS.  A FINAL VERSION WITH ADDITIONAL DATA IS
      ISSUED ABOUT 10 MINUTES AFTER THE HOUR.

NMZ501-503-504-510>518-251600-
NORTHWEST PLATEAU/NORTHCENTRAL MOUNTAINS

CITY           SKY/WX    TMP DP  RH WIND       PRES   REMARKS
FARMINGTON     FAIR      57  17  21 E6        30.13R
SANTA FE       FAIR      64   9  11 N9        30.16S
TAOS           FAIR      57  16  19 SW9       30.20S
ANGEL FIRE     FAIR      50  13  22 W21G26    30.21R

$$
NMZ402-403-502-505>509-251600-
WESTCENTRAL MOUNTAINS/SOUTHWEST MOUNTAINS

CITY           SKY/WX    TMP DP  RH WIND       PRES   REMARKS
GALLUP         FAIR      56  24  29 VRB3      30.17S
GRANTS         FAIR      56  18  22 SE6       30.21S
SILVER CITY      N/A     66  23  19 CALM      30.18S

$$
NMZ407-409-411-412-251600-
SOUTHERN DESERTS

CITY           SKY/WX    TMP DP  RH WIND       PRES   REMARKS
LORDSBURG      FAIR      68  21  17 SE6       30.11S
DEMING         FAIR      68  23  18 CALM      30.13R
HOLLOMAN AFB   FAIR      74  19  12 S8        30.10R
ALAMOGORDO     FAIR      75  21  13 S8        30.12R
T OR C         FAIR      68  21  16 SE3       30.12R

$$
NMZ519>523-251600-
CENTRAL VALLEYS/CENTRAL HIGHLANDS

CITY           SKY/WX    TMP DP  RH WIND       PRES   REMARKS
ALBUQUERQUE    FAIR      65  16  15 CALM      30.15S
DOUBLE EAGLE   SUNNY     64  18  16 NW6       30.18R
CLINES CORNERS FAIR      61  13  15 W21       30.17R
BELEN          FAIR      65  15  14 NW3       30.15S
SOCORRO        NOT AVBL

$$
NMZ524>526-539-540-251600-
SOUTHCENTRAL MOUNTAINS

CITY           SKY/WX    TMP DP  RH WIND       PRES   REMARKS
RUIDOSO        NOT AVBL

$$
NMZ527>531-251600-
NORTHEAST HIGHLANDS/NORTHEAST PLAINS

CITY           SKY/WX    TMP DP  RH WIND       PRES   REMARKS
LAS VEGAS      FAIR      63 -10   5 SW10      30.12S
RATON          FAIR      67   2   7 W23G30    30.04S
CLAYTON        FAIR      72  16  12 W10       30.02R

$$
NMZ532>537-251600-
EASTCENTRAL PLAINS

CITY           SKY/WX    TMP DP  RH WIND       PRES   REMARKS
TUCUMCARI      FAIR      77  19  11 W13       29.99R
CANNON AFB     FAIR      77  22  13 NW14      30.04R
CLOVIS AIRPORT FAIR      75  27  16 W15       30.03S

$$
NMZ028-029-538-251600-
SOUTHEAST PLAINS

CITY           SKY/WX    TMP DP  RH WIND       PRES   REMARKS
ROSWELL        FAIR      74  25  16 W5        30.04S
ARTESIA        FAIR      81  23  12 W8G15     30.05S
CARLSBAD       FAIR      82  21  10 W18G24    30.04S
HOBBS          SUNNY     82  25  12 W13       30.05R


$$



USA.gov is the U.S. government's official web portal to all federal, state and local government web resources and services.